User: anonymous   Login
Location: Saint-Hippolyte
(43.6394°N, 4.7559°E)
Time: 23:10:27
(UTC+00:00)
Language:

Cosmos 2098 Rocket - Orbit

View from above orbital plane
View from above orbital plane
View from above satellite
View from above satellite

Ground track
Ground track

The orbit data is extracted from the following two-line orbital elements,

1 20775U 90078B   21018.32199178  .00001167  00000-0  56257-4 0  9991
2 20775  82.9253  49.3416 0568870 248.6061 105.3545 14.35188868536559
Epoch (UTC): 18 January 2021 07:43:40
Eccentricity: 0.0568870
inclination: 82.9253°
perigee height: 367 km
apogee height: 1181 km
right ascension of ascending node: 49.3416°
argument of perigee: 248.6061°
revolutions per day: 14.35188868
mean anomaly at epoch: 105.3545°
orbit number at epoch: 53655

The dashed part of the orbit path shows where the satellite is in the earth's shadow,  

DLR